Year,Month,Day,Hour,Minute,Value (Times are PST for temperature in C)
2015,01,23,09,20,9.10
2015,01,23,09,21,9.10
2015,01,23,09,22,9.10
2015,01,23,09,23,9.10
2015,01,23,09,24,9.10
2015,01,23,09,25,9.10
2015,01,23,09,26,9.10
2015,01,23,09,27,9.10
2015,01,23,09,28,9.10
2015,01,23,09,29,9.10
2015,01,23,09,30,9.10
2015,01,23,09,31,9.10
2015,01,23,09,32,9.10
2015,01,23,09,33,9.10
2015,01,23,09,34,9.10
2015,01,23,11,50,9.80
2015,01,23,11,51,9.80
2015,01,23,11,52,9.80
2015,01,23,11,53,9.80
2015,01,23,11,54,9.80
2015,01,23,11,55,9.80
2015,01,23,11,56,9.80
2015,01,23,11,57,9.80
2015,01,23,11,58,9.80
2015,01,23,11,59,9.90
2015,01,23,12,00,9.90
2015,01,23,12,01,9.90
2015,01,23,12,02,9.90
2015,01,23,12,03,9.90
2015,01,23,12,04,9.90
2015,01,23,12,05,9.90
2015,01,23,12,06,9.90
2015,01,23,12,07,9.90
2015,01,23,12,08,9.90
2015,01,23,12,09,9.90
2015,01,23,12,10,9.90
2015,01,23,12,11,9.90
2015,01,23,12,12,9.90
2015,01,23,12,13,9.90
2015,01,23,12,14,9.90
2015,01,23,12,15,9.90
2015,01,23,12,16,10.00
2015,01,23,12,17,10.10
2015,01,23,12,18,10.10
2015,01,23,12,19,10.10
2015,01,23,12,20,10.10
2015,01,23,12,21,10.10
2015,01,23,12,22,10.10
2015,01,23,12,23,10.10
2015,01,23,12,24,10.10
2015,01,23,12,25,10.10
2015,01,23,12,26,10.10
2015,01,23,12,27,10.10
2015,01,23,12,28,10.10
2015,01,23,12,29,10.10
2015,01,23,12,30,10.10
2015,01,23,12,31,10.10
2015,01,23,12,32,10.10
2015,01,23,12,33,10.10
2015,01,23,12,34,10.10
2015,01,23,12,35,10.10
2015,01,23,12,36,10.10
2015,01,23,12,37,10.10
2015,01,23,12,38,10.10
2015,01,23,12,39,10.10
2015,01,23,12,40,10.10
2015,01,23,12,41,10.10
2015,01,23,12,42,10.10
2015,01,23,12,43,10.10
2015,01,23,12,44,10.10
2015,01,23,12,45,10.10
2015,01,23,12,46,10.10
2015,01,23,12,47,10.10
2015,01,23,12,48,10.10
2015,01,23,12,49,10.10
2015,01,23,12,50,10.10
2015,01,23,12,51,10.10
2015,01,23,12,52,10.10
2015,01,23,12,53,10.10
2015,01,23,12,54,10.10
2015,01,23,12,55,10.10
2015,01,23,12,56,10.10
2015,01,23,12,57,10.20
2015,01,23,12,58,10.20
2015,01,23,12,59,10.10
2015,01,23,13,00,10.10
2015,01,23,13,01,10.10
2015,01,23,13,02,10.20
2015,01,23,13,03,10.20
2015,01,23,13,04,10.20
2015,01,23,13,05,10.20
2015,01,23,13,06,10.20
2015,01,23,13,07,10.20
2015,01,23,13,08,10.20
2015,01,23,13,09,10.20
2015,01,23,13,10,10.20
2015,01,23,13,11,10.20
2015,01,23,13,12,10.20
2015,01,23,13,13,10.20
2015,01,23,13,14,10.20
2015,01,23,13,15,10.20
2015,01,23,13,16,10.20
2015,01,23,13,17,10.20
2015,01,23,13,18,10.30
2015,01,23,13,19,10.30
2015,01,23,13,20,10.30
2015,01,23,13,21,10.30
2015,01,23,13,22,10.40
2015,01,23,13,23,10.40
2015,01,23,13,24,10.40
2015,01,23,13,25,10.40
2015,01,23,13,26,10.40
2015,01,23,13,27,10.40
2015,01,23,13,28,10.40
2015,01,23,13,29,10.40
2015,01,23,13,30,10.40
2015,01,23,13,31,10.40
2015,01,23,13,32,10.40
2015,01,23,13,33,10.40
2015,01,23,13,34,10.40
2015,01,23,13,35,10.40
2015,01,23,13,36,10.40
2015,01,23,13,37,10.40
2015,01,23,13,38,10.40
2015,01,23,13,39,10.40
2015,01,23,13,40,10.40
2015,01,23,13,41,10.40
2015,01,23,13,42,10.40
2015,01,23,13,43,10.40
2015,01,23,13,44,10.30
2015,01,23,13,45,10.30
2015,01,23,13,46,10.30
2015,01,23,13,47,10.30
2015,01,23,13,48,10.30
2015,01,23,13,49,10.30
2015,01,23,13,50,10.30
2015,01,23,13,51,10.30
2015,01,23,13,52,10.30
2015,01,23,13,53,10.30
2015,01,23,13,54,10.30
2015,01,23,13,55,10.30
2015,01,23,13,56,10.20
2015,01,23,13,57,10.20
2015,01,23,13,58,10.20
2015,01,23,13,59,10.20
2015,01,23,14,00,10.20
2015,01,23,14,01,10.20
2015,01,23,14,02,10.20
2015,01,23,14,03,10.20
2015,01,23,14,04,10.30
2015,01,23,14,05,10.30
2015,01,23,14,06,10.30
2015,01,23,14,07,10.30
2015,01,23,14,08,10.30
2015,01,23,14,09,10.20
2015,01,23,14,10,10.20
2015,01,23,14,11,10.20
2015,01,23,14,12,10.20
2015,01,23,14,13,10.20
2015,01,23,14,14,10.20
2015,01,23,14,15,10.30
2015,01,23,14,16,10.30
2015,01,23,14,17,10.30
2015,01,23,14,18,10.30
2015,01,23,14,19,10.30
2015,01,23,14,20,10.30
2015,01,23,14,21,10.20
2015,01,23,14,22,10.20
2015,01,23,14,23,10.20
2015,01,23,14,24,10.20
2015,01,23,14,25,10.20
2015,01,23,14,26,10.20
2015,01,23,14,27,10.20
2015,01,23,14,28,10.20
2015,01,23,14,29,10.20
2015,01,23,14,30,10.20
2015,01,23,14,31,10.20
2015,01,23,14,32,10.30
2015,01,23,14,33,10.30
2015,01,23,14,34,10.30
2015,01,23,14,35,10.30
2015,01,23,14,36,10.30
2015,01,23,14,37,10.30
2015,01,23,14,38,10.30
2015,01,23,14,39,10.30
2015,01,23,14,40,10.30
2015,01,23,14,41,10.30
2015,01,23,14,42,10.30
2015,01,23,14,43,10.30
2015,01,23,14,44,10.30
2015,01,23,14,45,10.30
2015,01,23,14,46,10.30
2015,01,23,14,47,10.20
2015,01,23,14,48,10.20
2015,01,23,14,49,10.20
2015,01,23,14,50,10.30
2015,01,23,14,51,10.30
2015,01,23,14,52,10.30
2015,01,23,14,53,10.30
2015,01,23,14,54,10.30
2015,01,23,14,55,10.30
2015,01,23,14,56,10.20
2015,01,23,14,57,10.20
2015,01,23,14,58,10.20
2015,01,23,14,59,10.20
2015,01,23,15,00,10.10
2015,01,23,15,01,10.10
2015,01,23,15,02,10.10
2015,01,23,15,03,10.10
2015,01,23,15,04,10.10
2015,01,23,15,05,10.10
2015,01,23,15,06,10.10
2015,01,23,15,07,10.10
2015,01,23,15,08,10.10
2015,01,23,15,09,10.10
2015,01,23,15,10,10.10
2015,01,23,15,11,10.10
2015,01,23,15,12,10.10
2015,01,23,15,13,10.10
2015,01,23,15,14,10.10
2015,01,23,15,15,10.10
2015,01,23,15,16,10.10
2015,01,23,15,17,10.10
2015,01,23,15,18,10.10
2015,01,23,15,19,10.10
2015,01,23,15,20,10.10
2015,01,23,15,21,10.10
2015,01,23,15,22,10.10
2015,01,23,15,23,10.10
2015,01,23,15,24,10.10
2015,01,23,15,25,10.10
2015,01,23,15,26,10.10
2015,01,23,15,27,10.10
2015,01,23,15,28,10.10
2015,01,23,15,29,10.10
2015,01,23,15,30,10.10
2015,01,23,15,31,10.10
2015,01,23,15,32,10.10
2015,01,23,15,33,10.10
